Location: Betpouey
(42.8833°N, 0.0333°E)
Time: 21:55:04
(UTC+00:00)

CORIOLIS - Pass Details

Date: 01 December 2020
Orbit: 818 x 839 km, 98.7° (Epoch: 19 January)

Event Time Altitude Azimuth Distance (km) Brightness Sun altitude
Rises 17:24:27 0° 161° (SSE) 3,360 7.4 -10.4°
Reaches altitude 10° 17:26:47 10° 161° (SSE) 2,434 6.6 -10.8°
Maximum altitude 17:32:11 82° 74° (ENE) 850 4.1 -11.8°
Drops below altitude 10° 17:37:39 10° 348° (NNW) 2,461 6.6 -12.7°
Sets 17:40:01 0° 348° (NNW) 3,401 7.3 -13.1°
